Tracking 19170 objects as of 23-May-2018
HD Live streaming from Space Station
objects crossing your sky now

FORMOSAT 3A

Track FORMOSAT 3A now!
10-day predictions
FORMOSAT 3A is classified as:


NORAD ID: 29047
Int'l Code: 2006-011A
Perigee: 766.1 km
Apogee: 840.8 km
Inclination: 72.0 °
Period: 100.8 minutes
Semi major axis: 7174 km
RCS: 0.591 m2 (medium)
Launch date: April 15, 2006
Source: Taiwan (Republic of China) (ROC)
Launch site: AIR FORCE WESTERN TEST RANGE (AFWTR)
aabbcc
Your satellite tracking list
Your tracking list is empty




NASA's NSSDC Master Catalog

Two Line Element Set (TLE):
1 29047U 06011A   18142.65140642 +.00000031 +00000-0 +28636-4 0  9997
2 29047 071.9794 214.4965 0052043 286.4301 073.1119 14.28638019633231
Source of the keplerian elements: AFSPC